Aurora, CO

3:03 PM MDT on September 27, 2016 (GMT -0600)
Denver International

Weather History for KDEN - January, 2014

Change the Weather History Date:

Friday, January 17, 2014

  Actual Average Record
Temperature  
Mean Temperature 38 °F 31 °F  
Max Temperature 55 °F 44 °F 65 °F (1971)
Min Temperature 20 °F 18 °F -20 °F (1930)
Degree Days  
Heating Degree Days 27 34  
Month to date heating degree days 601 583  
Since 1 July heating degree days 3052 3051  
Cooling Degree Days 0 0  
Month to date cooling degree days 0 0  
Year to date cooling degree days 0 0  
Moisture  
Dew Point 16 °F    
Average Humidity 52    
Maximum Humidity 84    
Minimum Humidity 19    
Precipitation  
Precipitation 0.00 in 0.01 in 0.62 in (1905)
Month to date precipitation 0.48 0.22  
Year to date precipitation 0.48 0.22  
Snow  
Snow 0.00 in - - ()
Month to date snowfall 6.2  
Since 1 July snowfall 14.3  
Snow Depth 0.00 in    
Sea Level Pressure  
Sea Level Pressure 30.11 in    
Wind  
Wind Speed 7 mph (South)    
Max Wind Speed 14 mph    
Max Gust Speed 15 mph    
Visibility 10 miles    
Events      
T = Trace of Precipitation, MM = Missing Value Source: NWS Daily Summary

Daily Weather History Graph

Daily Weather History Graph

Search for Another Location

Airport or City:

Trip Planner

Search our weather history database for the weather conditions in past years. The results will help you decide how hot, cold, wet, or windy it might be!

Date:

Astronomy

Jan. 17, 2014 Rise Set
Actual Time 7:17 AM MST 5:00 PM MST
Civil Twilight 6:47 AM MST 5:30 PM MST
Nautical Twilight 6:14 AM MST 6:03 PM MST
Astronomical Twilight 5:42 AM MST 6:35 PM MST
Moon 6:49 PM MST (1/17) 7:46 AM MST (1/17)
Length of Visible Light 10h 42m
Length of Day
9h 43m
Full, 98% of the Moon is Illuminated
Jan 17
Full
Jan 23
Last Quarter
Jan 30
New
Feb 6
First Quarter
Feb 14
Full

Hourly Weather History & Observations

Time (MST) Temp. Windchill Dew Point Humidity Pressure Visibility Wind Dir Wind Speed Gust Speed Precip Events Conditions
12:53 AM 21.9 °F 11.0 °F 17.1 °F 82% 30.24 in 10.0 mi SSE 10.4 mph - N/A   Partly Cloudy
1:53 AM 21.9 °F 10.4 °F 16.0 °F 78% 30.22 in 10.0 mi South 11.5 mph - N/A   Partly Cloudy
2:53 AM 19.9 °F 7.3 °F 15.1 °F 81% 30.21 in 10.0 mi SSE 12.7 mph - N/A   Partly Cloudy
3:53 AM 19.9 °F 8.6 °F 15.1 °F 81% 30.20 in 10.0 mi SSE 10.4 mph - N/A   Partly Cloudy
4:53 AM 21.0 °F 9.3 °F 15.1 °F 78% 30.20 in 10.0 mi SSE 11.5 mph - N/A   Partly Cloudy
5:53 AM 24.1 °F 15.2 °F 15.1 °F 69% 30.20 in 10.0 mi SSW 8.1 mph - N/A   Partly Cloudy
6:53 AM 26.1 °F 16.2 °F 15.1 °F 63% 30.19 in 10.0 mi SW 10.4 mph - N/A   Partly Cloudy
7:53 AM 28.0 °F 19.3 °F 15.1 °F 58% 30.18 in 10.0 mi SW 9.2 mph - N/A   Partly Cloudy
8:53 AM 34.0 °F 31.0 °F 18.0 °F 52% 30.16 in 10.0 mi South 3.5 mph - N/A   Partly Cloudy
9:53 AM 41.0 °F 39.0 °F 16.0 °F 36% 30.15 in 10.0 mi South 3.5 mph - N/A   Partly Cloudy
10:53 AM 46.0 °F 43.9 °F 17.1 °F 31% 30.10 in 10.0 mi ESE 4.6 mph - N/A   Partly Cloudy
11:53 AM 48.0 °F - 15.1 °F 27% 30.07 in 10.0 mi ESE 5.8 mph - N/A   Partly Cloudy
12:53 PM 50.0 °F - 12.0 °F 22% 30.03 in 10.0 mi SSW 3.5 mph - N/A   Partly Cloudy
1:53 PM 52.0 °F - 12.0 °F 20% 30.01 in 10.0 mi Calm Calm - N/A   Partly Cloudy
2:53 PM 53.1 °F - 12.9 °F 20% 30.01 in 10.0 mi Variable 4.6 mph - N/A   Partly Cloudy
3:53 PM 48.9 °F - 19.9 °F 32% 30.03 in 10.0 mi SE 8.1 mph - N/A   Partly Cloudy
4:53 PM 39.0 °F 32.3 °F 21.0 °F 49% 30.06 in 10.0 mi SE 10.4 mph - N/A   Scattered Clouds
5:53 PM 33.1 °F 26.1 °F 21.9 °F 64% 30.09 in 10.0 mi SE 8.1 mph - N/A   Partly Cloudy
6:53 PM 28.9 °F 23.9 °F 21.9 °F 75% 30.10 in 10.0 mi SW 4.6 mph - N/A   Partly Cloudy
7:53 PM 42.1 °F 35.7 °F 16.0 °F 35% 30.06 in 10.0 mi WNW 11.5 mph - N/A   Partly Cloudy
8:53 PM 37.9 °F 32.7 °F 16.0 °F 41% 30.05 in 10.0 mi WNW 6.9 mph - N/A   Partly Cloudy
9:53 PM 36.0 °F 31.1 °F 16.0 °F 44% 30.03 in 10.0 mi SW 5.8 mph - N/A   Partly Cloudy
10:53 PM 39.9 °F - 14.0 °F 35% 30.01 in 10.0 mi Calm Calm - N/A   Partly Cloudy
11:53 PM 34.0 °F - 15.1 °F 46% 30.04 in 10.0 mi Calm Calm - N/A   Partly Cloudy